This is the latest recevied weather packets stored in our database for station/object W5COG. If no packets are shown the sender has not sent any weather packets the latest 1 day(s).
| Time | Temp. | Humidity | Pressure | Rain* | Wind** | Luminosity | Snow |
|---|---|---|---|---|---|---|---|
| 1778039128 | 10° C | 66% | 1013.3 hPa | 0 mm | 0.89 m/s, 35° | 0 W/m² | - |
| 1778038828 | 10° C | 66% | 1013.2 hPa | 0 mm | 1.34 m/s, 30° | 0 W/m² | - |
| 1778038528 | 10° C | 65% | 1013.3 hPa | 0 mm | 2.24 m/s, 28° | 0 W/m² | - |
| 1778038228 | 10° C | 66% | 1013.1 hPa | 0 mm | 1.34 m/s, 40° | 0 W/m² | - |
| 1778037928 | 10° C | 68% | 1013.1 hPa | 0 mm | 1.79 m/s, 34° | 0 W/m² | - |
| 1778037628 | 10° C | 68% | 1012.9 hPa | 0 mm | 1.34 m/s, 25° | 0 W/m² | - |
| 1778037328 | 10° C | 69% | 1012.8 hPa | 0 mm | 1.79 m/s, 41° | 0 W/m² | - |
| 1778037028 | 10° C | 70% | 1012.8 hPa | 0 mm | 2.24 m/s, 44° | 0 W/m² | - |
| 1778036728 | 10° C | 71% | 1012.7 hPa | 0 mm | 2.24 m/s, 55° | 0 W/m² | - |
| 1778036428 | 10° C | 72% | 1012.7 hPa | 0 mm | 1.34 m/s, 35° | 0 W/m² | - |
| 1778036128 | 10° C | 72% | 1012.6 hPa | 0 mm | 1.79 m/s, 35° | 0 W/m² | - |
| 1778035828 | 10° C | 72% | 1012.7 hPa | 0 mm | 1.34 m/s, 31° | 0 W/m² | - |
| 1778035528 | 10° C | 71% | 1012.6 hPa | 0 mm | 1.34 m/s, 42° | 0 W/m² | - |
| 1778035228 | 10° C | 72% | 1012.3 hPa | 0 mm | 1.34 m/s, 40° | 0 W/m² | - |
| 1778034928 | 10° C | 72% | 1012.2 hPa | 0 mm | 1.34 m/s, 44° | 0 W/m² | - |
| 1778034635 | 10° C | 71% | 1012.1 hPa | 0 mm | 1.34 m/s, 48° | 0 W/m² | - |
| 1778034328 | 10° C | 71% | 1012 hPa | 0 mm | 1.79 m/s, 34° | 0 W/m² | - |
| 1778034028 | 10° C | 71% | 1011.8 hPa | 0 mm | 1.34 m/s, 30° | 0 W/m² | - |
| 1778033728 | 10° C | 72% | 1011.6 hPa | 0 mm | 0.89 m/s, 26° | 0 W/m² | - |
| 1778033428 | 10° C | 71% | 1011.5 hPa | 0 mm | 0.89 m/s, 44° | 0 W/m² | - |
| 1778032528 | 10° C | 70% | 1011.2 hPa | 0 mm | 2.24 m/s, 48° | 0 W/m² | - |
| 1778032228 | 10° C | 71% | 1011.1 hPa | 0 mm | 1.79 m/s, 37° | 0 W/m² | - |
| 1778031928 | 10° C | 72% | 1010.9 hPa | 0 mm | 1.79 m/s, 29° | 0 W/m² | - |
| 1778031629 | 10° C | 73% | 1010.8 hPa | 0 mm | 1.79 m/s, 39° | 0 W/m² | - |
| 1778031328 | 10° C | 72% | 1010.8 hPa | 0 mm | 2.24 m/s, 24° | 0 W/m² | - |
* Rain latest hour (hover to see other rain measurements)
** Current wind speed in m/s (hover to see current wind gust speed)